Location: Miss�
(46.9484°N, 0.1922°W)
Time: 10:34:16
(UTC+00:00)

H-2A R/B - Pass Details

Date: 02 March 2021
Orbit: 732 x 837 km, 98.2° (Epoch: 10 April)

Event Time Altitude Azimuth Distance (km) Brightness Sun altitude
Rises 18:31:49 0° 163° (SSE) 3,363 5.2 -8.3°
Reaches altitude 10° 18:34:09 10° 163° (SSE) 2,440 4.4 -8.7°
Maximum altitude 18:39:36 87° 74° (ENE) 846 2.2 -9.6°
Drops below altitude 10° 18:45:05 10° 347° (NNW) 2,457 4.8 -10.5°
Sets 18:47:27 0° 347° (NNW) 3,389 5.5 -10.9°
